This is the latest recevied weather packets stored in our database for station/object OK1FRN-6. If no packets are shown the sender has not sent any weather packets the latest 10 day(s).
| Time | Temp. | Humidity | Pressure | Rain* | Wind** | Luminosity | Snow |
|---|---|---|---|---|---|---|---|
| 1777743546 | 22.78° C | 23% | 1019.1 hPa | - | - | - | - |
| 1777742933 | 23.33° C | 22% | 1019.1 hPa | - | - | - | - |
| 1777742626 | 23.33° C | 22% | 1019.2 hPa | - | - | - | - |
| 1777742319 | 23.33° C | 22% | 1019.2 hPa | - | - | - | - |
| 1777739862 | 25° C | 21% | 1019.4 hPa | - | - | - | - |
| 1777739248 | 25° C | 21% | 1019.5 hPa | - | - | - | - |
| 1777738633 | 25.56° C | 20% | 1019.6 hPa | - | - | - | - |
| 1777738019 | 25.56° C | 20% | 1019.8 hPa | - | - | - | - |
| 1777737712 | 25.56° C | 20% | 1019.8 hPa | - | - | - | - |
| 1777736483 | 26.11° C | 20% | 1020.1 hPa | - | - | - | - |
| 1777736175 | 26.11° C | 20% | 1020.1 hPa | - | - | - | - |
| 1777735868 | 26.11° C | 19% | 1020.2 hPa | - | - | - | - |
| 1777735561 | 26.67° C | 20% | 1020.2 hPa | - | - | - | - |
| 1777734946 | 26.67° C | 20% | 1020.3 hPa | - | - | - | - |
| 1777734639 | 26.67° C | 21% | 1020.4 hPa | - | - | - | - |
| 1777734332 | 26.67° C | 21% | 1020.5 hPa | - | - | - | - |
| 1777733717 | 26.67° C | 21% | 1020.6 hPa | - | - | - | - |
| 1777732795 | 26.67° C | 21% | 1020.7 hPa | - | - | - | - |
| 1777732488 | 26.67° C | 21% | 1020.8 hPa | - | - | - | - |
| 1777732180 | 27.22° C | 20% | 1020.9 hPa | - | - | - | - |
| 1777731873 | 27.22° C | 20% | 1020.9 hPa | - | - | - | - |
| 1777731565 | 27.78° C | 20% | 1021.1 hPa | - | - | - | - |
| 1777731258 | 27.78° C | 21% | 1021.2 hPa | - | - | - | - |
| 1777730950 | 27.22° C | 22% | 1021.2 hPa | - | - | - | - |
| 1777730336 | 27.22° C | 21% | 1021.3 hPa | - | - | - | - |
* Rain since midnight (hover to see other rain measurements)
** Current wind speed in m/s (hover to see current wind gust speed)